Weather History for KLUK - April, 2014

Change the Weather History Date:

Friday, April 4, 2014

  Actual Average Record
Temperature  
Mean Temperature 54 °F -  
Max Temperature 64 °F 60 °F 84 °F (1986)
Min Temperature 44 °F 40 °F 26 °F (1962)
Degree Days  
Heating Degree Days 11    
Growing Degree Days 4 (Base 50)    
Moisture  
Dew Point 51 °F    
Average Humidity 86    
Maximum Humidity 100    
Minimum Humidity 55    
Precipitation  
Precipitation 0.87 in - - ()
Sea Level Pressure  
Sea Level Pressure 29.73 in    
Wind  
Wind Speed 8 mph (SW)    
Max Wind Speed 26 mph    
Max Gust Speed 36 mph    
Visibility 8 miles    
Events Rain , Thunderstorm    
Averages and records for this station are not official NWS values.
T = Trace of Precipitation, MM = Missing Value Source: NWS Daily Summary

Daily Weather History Graph

Daily Weather History Graph

Search for Another Location

Airport or City:

Trip Planner

Search our weather history database for the weather conditions in past years. The results will help you decide how hot, cold, wet, or windy it might be!

Date:

Astronomy

Apr. 04, 2014 Rise Set
Actual Time 7:17 AM EDT 8:04 PM EDT
Civil Twilight 6:50 AM EDT 8:31 PM EDT
Nautical Twilight 6:18 AM EDT 9:03 PM EDT
Astronomical Twilight 5:45 AM EDT 9:36 PM EDT
Moon 10:35 AM EDT (4/4) 12:20 AM EDT (4/4)
Length of Visible Light 13h 40m
Length of Day
12h 46m
Waxing Crescent, 25% of the Moon is Illuminated
Apr 4
Waxing Crescent
Apr 7
First Quarter
Apr 15
Full
Apr 22
Last Quarter
Apr 29
New

Hourly Weather History & Observations

Time (EDT) Temp. Windchill Dew Point Humidity Pressure Visibility Wind Dir Wind Speed Gust Speed Precip Events Conditions
12:16 AM 57.0 °F - 55.9 °F 96% 29.76 in 10.0 mi SE 3.5 mph - N/A   Overcast
12:45 AM 57.0 °F - 55.9 °F 96% 29.75 in 10.0 mi NNE 3.5 mph - N/A   Mostly Cloudy
12:53 AM 57.0 °F - 55.9 °F 96% 29.74 in 10.0 mi North 4.6 mph - N/A   Mostly Cloudy
1:00 AM 57.0 °F - 55.0 °F 93% 29.75 in 10.0 mi North 3.5 mph - N/A   Scattered Clouds
1:11 AM 55.9 °F - 55.0 °F 97% 29.75 in 9.0 mi NNE 3.5 mph - N/A   Mostly Cloudy
1:38 AM 55.0 °F - 55.0 °F 100% 29.74 in 4.0 mi Calm Calm - N/A   Scattered Clouds
1:43 AM 55.0 °F - 54.0 °F 96% 29.72 in 1.8 mi NE 3.5 mph - N/A   Partly Cloudy
1:53 AM 55.0 °F - 54.0 °F 96% 29.73 in 1.2 mi NNW 3.5 mph - N/A   Partly Cloudy
1:58 AM 55.0 °F - 55.0 °F 100% 29.75 in 4.0 mi West 3.5 mph - N/A   Scattered Clouds
2:45 AM 55.9 °F - 55.0 °F 97% 29.74 in 2.5 mi Calm Calm - 0.13 in Rain , Thunderstorm Heavy Rain
2:50 AM 55.4 °F - 55.4 °F 100% 29.75 in 3.0 mi Calm Calm - 0.15 in Rain , Thunderstorm Thunderstorms and Rain
2:53 AM 55.9 °F - 55.9 °F 100% 29.76 in 3.0 mi SSW 4.6 mph - 0.15 in Rain , Thunderstorm Thunderstorms and Rain
3:53 AM 57.9 °F - 57.0 °F 97% 29.72 in 4.0 mi Calm Calm - 0.18 in Rain , Thunderstorm Heavy Rain
4:36 AM 57.0 °F - 55.9 °F 96% 29.67 in 6.0 mi SSW 4.6 mph - 0.12 in Rain Rain
4:53 AM 57.9 °F - 57.9 °F 100% 29.67 in 10.0 mi South 11.5 mph - 0.15 in Rain Rain
5:19 AM 57.9 °F - 57.9 °F 100% 29.67 in 4.0 mi South 10.4 mph - 0.10 in Rain , Thunderstorm Rain
5:34 AM 57.9 °F - 57.9 °F 100% 29.65 in 7.0 mi South 5.8 mph - 0.14 in Rain Rain
5:53 AM 57.9 °F - 57.0 °F 97% 29.65 in 10.0 mi South 9.2 mph - 0.16 in Rain Light Rain
6:42 AM 57.9 °F - 57.0 °F 97% 29.65 in 10.0 mi SSW 8.1 mph - 0.04 in Rain Light Rain
6:51 AM 57.2 °F - 57.2 °F 100% 29.66 in 10.0 mi South 9.2 mph - 0.06 in Rain Rain
6:53 AM 57.9 °F - 57.0 °F 97% 29.64 in 9.0 mi South 8.1 mph - 0.06 in Rain Rain
7:04 AM 57.9 °F - 57.0 °F 97% 29.65 in 8.0 mi SSW 8.1 mph - 0.02 in Rain Light Rain
7:21 AM 57.9 °F - 57.0 °F 97% 29.65 in 10.0 mi SSW 6.9 mph - 0.04 in Rain Light Rain
7:53 AM 57.9 °F - 57.0 °F 97% 29.63 in 7.0 mi SW 4.6 mph - 0.07 in Rain Light Rain
8:53 AM 57.9 °F - 57.0 °F 97% 29.65 in 10.0 mi SSW 9.2 mph - 0.06 in Rain Light Rain
9:53 AM 59.0 °F - 55.9 °F 90% 29.57 in 10.0 mi SSE 13.8 mph - 0.04 in Rain Light Rain
10:53 AM 60.1 °F - 57.0 °F 90% 29.58 in 10.0 mi South 12.7 mph - 0.00 in   Clear
11:53 AM 63.0 °F - 57.0 °F 81% 29.60 in 10.0 mi SSW 19.6 mph 27.6 mph N/A   Scattered Clouds
12:42 PM 61.0 °F - 55.0 °F 81% 29.62 in 10.0 mi SW 21.9 mph 31.1 mph 0.00 in Rain Light Rain
12:53 PM 61.0 °F - 55.0 °F 81% 29.62 in 10.0 mi SW 19.6 mph 29.9 mph 0.00 in Rain Light Rain
1:28 PM 63.0 °F - 55.0 °F 75% 29.63 in 10.0 mi SSW 17.3 mph 26.5 mph 0.00 in   Overcast
1:53 PM 64.0 °F - 55.0 °F 73% 29.62 in 10.0 mi SW 20.7 mph 27.6 mph 0.00 in   Overcast
2:15 PM 64.0 °F - 54.0 °F 70% 29.64 in 10.0 mi WSW 21.9 mph 32.2 mph N/A   Mostly Cloudy
2:53 PM 57.9 °F - 50.0 °F 75% 29.68 in 10.0 mi West 23.0 mph 34.5 mph N/A   Overcast
3:53 PM 52.0 °F - 45.0 °F 77% 29.73 in 10.0 mi West 21.9 mph 33.4 mph N/A   Overcast
4:53 PM 50.0 °F - 41.0 °F 71% 29.78 in 10.0 mi West 17.3 mph 29.9 mph N/A   Overcast
5:53 PM 48.0 °F - 35.1 °F 61% 29.83 in 10.0 mi WSW 26.5 mph 35.7 mph N/A   Overcast
5:55 PM 48.0 °F - 35.1 °F 61% 29.83 in 10.0 mi WSW 25.3 mph 35.7 mph N/A   Overcast
6:53 PM 46.9 °F - 36.0 °F 66% 29.87 in 10.0 mi WSW 20.7 mph - N/A   Overcast
7:53 PM 45.0 °F 37.6 °F 32.0 °F 60% 29.91 in 10.0 mi WSW 17.3 mph 24.2 mph N/A   Overcast
8:53 PM 45.0 °F 37.9 °F 30.9 °F 58% 29.95 in 10.0 mi West 16.1 mph 21.9 mph N/A   Overcast
9:53 PM 44.1 °F 36.5 °F 30.0 °F 58% 29.98 in 10.0 mi West 17.3 mph 24.2 mph N/A   Overcast
10:53 PM 44.1 °F 36.5 °F 30.0 °F 58% 29.99 in 10.0 mi West 17.3 mph 23.0 mph N/A   Overcast
11:53 PM 44.1 °F 37.4 °F 28.9 °F 55% 30.01 in 10.0 mi West 13.8 mph 29.9 mph N/A   Overcast